Location: ??????
(42.0089°N, 44.3281°E)
Time: 17:29:30
(UTC+00:00)

Cosmos 220 Rocket - Pass Details

Date: 01 June 2022
Orbit: 572 x 614 km, 74.0° (Epoch: 30 June)

Event Time Altitude Azimuth Distance (km) Brightness Sun altitude
Exits shadow 18:37:53 13° 81° (E) 1,682 6.0 -17.9°
Drops below altitude 10° 18:39:05 10° 65° (ENE) 1,882 6.4 -18.0°
Sets 18:42:11 0° 40° (NE) 2,788 7.6 -18.3°
